Regional Weather Roundup
Issued by NWS Albany, NY

Home | Current Version | Previous Version | Text Only | Print | Product List | Glossary On
Versions: 1 2 3 4 5 6 7 8 9 10 11 12 13 14 15 16 17 18 19 20 21 22 23 24 25 26 27
000
ASUS41 KALY 281610
RWRALY

NEW YORK STATE HOURLY WEATHER ROUNDUP
NATIONAL WEATHER SERVICE ALBANY NY
1200 PM EDT FRI APR 28 2017

NOTE: "FAIR" INDICATES FEW OR NO CLOUDS BELOW 12,000 FEET WITH NO
SIGNIFICANT WEATHER AND/OR NO OBSTRUCTIONS TO VISIBILITY.

NYZ032-033-038>043-046>054-057>066-NYZ062>081-082-084-281700-
EAST


CITY           SKY/WX    TMP DP  RH WIND       PRES   REMARKS
ALBANY         PTSUNNY   69  51  52 NW9       30.00R
GLENS FALLS    SUNNY     74  47  38 SW9G18    29.95F
POUGHKEEPSIE   MOSUNNY   73  61  65 SE5       29.96S
NEWBURGH       MOSUNNY   75  63  64 W12       29.99R
MONTGOMERY     SUNNY     79  56  45 NW9       29.96S
WHITE PLAINS   MOSUNNY   72  62  71 SW5       29.99S
ISLIP          MOSUNNY   74  62  66 SW6       29.99F
NEW YORK CITY  MOSUNNY   74  61  63 NE5       29.98S
CENTRAL PARK   SUNNY     75  60  59 CALM      30.01S HAZE
$$

NYZ005>009-017-018-044>046-055-056-281700-
CENTRAL


CITY           SKY/WX    TMP DP  RH WIND       PRES   REMARKS
FULTON         SUNNY     64  45  49 VRB3      30.01F
SYRACUSE       MOSUNNY   64  47  53 W9        30.02S
ROME           SUNNY     64  47  53 SW12      30.03S
ELMIRA         SUNNY     69  43  38 SW10      30.01S
BINGHAMTON     CLOUDY    63  49  60 VRB3      30.03S
MONTICELLO     SUNNY     73  54  49 NW6       30.03R
$$

NYZ026>034-041>043-087-281700-
NORTH


CITY           SKY/WX    TMP DP  RH WIND       PRES   REMARKS
WATERTOWN        N/A    N/A N/A N/A MISG      30.03R
FORT DRUM      NOT AVBL
OGDENSBURG     PTSUNNY   63  48  57 SW18G24   29.99S
MASSENA        MOSUNNY   62  47  57 W15       29.98S
SARANAC LAKE   SUNNY     60  46  59 W12G18    29.98S
PLATTSBURGH    SUNNY     72  45  37 W10G21    29.93S
$$

NYZ001>004-010>016-019>021-085-281700-
WEST


CITY           SKY/WX    TMP DP  RH WIND       PRES   REMARKS
NIAGARA FALLS  SUNNY     59  44  57 SW16G24   30.01F
BUFFALO        PTSUNNY   55  42  61 SW14      30.01F
DUNKIRK        CLOUDY    53  43  68 W12       30.02F
JAMESTOWN      MOSUNNY   59  43  55 S13       30.02F
WELLSVILLE     MOSUNNY   63  40  42 S10G16    30.05F
ROCHESTER      MOSUNNY   61  44  53 W12G21    30.01F
PENN YAN       SUNNY     66  40  38 SW10      30.01F
$$

             KEY
       WCI = WIND CHILL INDEX
       VSB = VISIBILITY
       HX  = HEAT INDEX
$$




USA.gov is the U.S. government's official web portal to all federal, state and local government web resources and services.